User: anonymous
Location: Brno
(49.2000°N, 16.6330°E)
Time: 05:44:14
(UTC+02:00)
Language:

Meteor 1-4 Rocket - Orbit

View from above orbital plane
View from above orbital plane
View from above satellite
View from above satellite

Ground track
Ground track

The orbit data is extracted from the following two-line orbital elements,

1 04394U 70037B   14212.81653127  .00004774  00000-0  20973-3 0  6353
2 04394 081.2471 164.2020 0049848 099.8242 260.8623 15.20551678404495
Epoch (UTC): 31 July 2014 19:35:48
Eccentricity: 0.0049848
inclination: 81.2471°
perigee height: 470 km
apogee height: 538 km
right ascension of ascending node: 164.2020°
argument of perigee: 99.8242°
revolutions per day: 15.20551678
mean anomaly at epoch: 260.8623°
orbit number at epoch: 40449

The dashed part of the orbit path shows where the satellite is in the earth's shadow,  

DLR